SCP
-0 -0 -0 -0 -0 -0 -0 -0 -0 -0 -0 -0 -0 -0 -0 -0 -0 0 0 0 -0 0 0 0 0 0 0 0 0 0 0 1 0
-0 -0 -0 -0 -0 -0 -0 -0 -0 -0 -0 0 0 0 -0 -0 -0 -0 0 0 0 -0 0 0 0 0 0 0 0 0 0 0 0
0 -0 0 0 0 0 0 -0 -0 -0 0 -0 -0 -0 -0 -0 -0 -0 -0 -0 0 0 0 0 0 0 0 0 0 0 0 0 0
-0 -0 0 0 -0 0 0 0 0 0 0 -0 -0 -0 -0 -0 0 0 0 0 0 0 0 0 0 0 0 0 0 0 0 0 0
0 0 0 -0 0 0 0 0 -0 -0 0 0 0 -0 0 0 0 0 0 0 0 0 0 0 0 0 0 0 0 0 0 0 0
0 0 0 0 0 0 0 0 0 0 0 0 0 0 0 0 0 0 0 0 0 0 0 0 0 0 0 0 0 0 0 0 0
1 1 0 0 0 0 0 0 0 0 0 0 0 0 0 0 0 0 0 0 0 0 1 1 1 1 1 1 1 1 1 1 1
1 1 1 1 0 0 0 0 0 0 0 0 0 0 0 0 0 1 1 1 1 1 1 1 1 1 1 1 2 2 2 2 2
1 2 1 1 0 0 0 0 0 0 1 0 0 0 0 0 1 1 0 1 1 1 1 1 1 1 1 1 1 1 2 2 2
1 1 1 0 0 1 1 1 1 1 1 1 1 1 1 1 1 1 0 0 0 0 0 1 2 2 2 2 2 2 1 1 1
1 0 0 0 0 1 1 1 1 1 1 1 1 1 1 1 1 1 1 1 1 1 1 1 1 1 1 1 1 0 0 0 1
0 0 0 0 0 0 0 0 0 0 0 0 0 0 0 0 1 1 1 1 1 1 1 1 1 1 1 1 1 0 0 0 0
0 0 0 0 0 0 0 0 0 0 0 0 0 0 0 0 0 0 0 1 1 1 1 1 1 0 0 0 0 0 0 0 0
0 0 0 0 0 0 0 0 0 0 0 0 0 0 0 0 0 0 0 0 0 0 1 1 1 1 0 0 0 0 0 0 0
0 0 0 0 0 0 0 0 0 0 0 0 0 0 0 0 0 0 0 0 0 0 0 0 0 1 1 0 0 0 0 0 0
0 0 0 0 0 0 0 0 0 0 0 0 0 0 0 0 0 0 0 0 0 0 0 0 0 0 0 1 1 1 0 0 0
0 0 0 0 0 0 0 0 0 0 0 0 0 0 0 0 0 0 0 0 0 0 0 0 0 0 0 0 1 1 1 1 0
0 0 0 0 0 0 0 0 0 0 0 0 0 0 0 0 0 0 0 0 0 0 0 0 0 0 0 0 0 1 0 0 1
0 0 0 0 0 0 0 0 0 0 0 0 0 0 0 0 0 0 0 0 0 0 0 0 0 0 0 0 0 0 0 0 0
0 0 0 0 0 0 0 0 0 0 0 0 0 0 0 0 0 0 0 0 0 0 0 0 0 0 0 0 0 0 0 0 0
Wind_Speed_500mb
20 25 30 36 43 52 55 56 59 64 62 67 65 65 62 58 57 55 50 51 52 39 35 31 29 29 29 25 29 25 28 32 26
25 17 11 11 22 35 46 53 56 57 68 70 67 67 67 66 65 63 55 53 46 42 43 36 39 34 31 27 32 33 33 33 35
27 22 20 19 16 14 21 33 43 48 49 56 55 55 54 52 54 58 56 55 57 49 42 44 42 39 34 31 26 34 38 40 44
24 25 24 24 24 24 24 22 23 28 33 37 46 55 56 53 48 45 48 47 47 46 48 49 47 45 40 37 34 33 40 42 52
22 23 26 28 31 33 29 24 20 19 19 20 24 32 42 48 45 44 41 45 41 42 45 50 51 49 46 44 41 36 38 35 53
20 21 23 29 31 32 27 23 19 16 16 8 10 19 25 28 31 33 39 39 40 41 46 49 51 52 52 51 48 46 43 40 42
19 18 20 25 29 28 23 19 15 12 8 7 7 12 17 25 30 32 32 35 39 41 47 51 53 54 56 58 59 59 54 52 51
22 20 18 18 22 19 16 11 8 4 3 7 6 9 12 16 22 22 26 32 36 39 40 46 52 55 58 59 58 55 55 57 64
27 21 20 19 20 19 14 10 10 7 2 6 8 9 9 13 17 20 26 29 31 34 37 39 42 45 47 49 53 47 58 59 54
25 24 24 22 21 20 19 16 12 9 6 4 4 2 6 7 8 13 20 26 29 34 39 35 41 45 50 50 51 54 54 50 55
30 27 22 21 22 21 18 16 12 13 13 11 6 5 8 13 17 18 20 22 22 23 28 35 39 42 48 54 59 65 69 61 53
28 26 22 20 19 16 14 12 12 12 12 11 9 8 12 15 18 20 24 26 24 26 27 29 34 38 43 48 54 54 54 57 60
25 21 17 15 15 14 15 15 13 13 15 18 21 25 25 25 26 27 25 25 25 25 29 34 33 32 38 40 42 36 27 30 40
22 19 16 15 14 14 15 13 10 11 14 24 31 35 38 39 38 36 35 36 34 31 33 36 39 37 39 42 40 38 36 24 29
23 18 15 13 13 12 5 6 9 10 20 30 34 37 39 42 43 41 37 41 40 40 40 36 36 35 38 36 42 55 59 53 54
20 15 13 9 7 7 6 13 24 25 30 34 37 36 34 34 36 35 34 34 36 36 35 37 36 37 40 38 33 36 46 57 59
19 15 12 8 5 2 7 18 25 29 33 34 28 22 22 21 23 33 28 28 26 28 31 35 38 39 41 41 41 40 39 34 38
18 15 10 7 3 3 10 21 25 25 28 29 25 24 23 23 24 27 28 27 29 31 30 32 37 36 38 39 39 38 39 40 32
17 14 9 5 2 8 15 21 20 23 22 23 24 23 22 26 28 28 28 29 29 30 39 43 39 46 52 53 53 56 54 51 54
22 16 10 4 4 10 13 16 19 22 22 20 24 29 25 24 27 25 27 31 34 39 37 33 38 39 36 44 52 54 56 55 50
Wind_Direction_500mb
175 199 214 222 226 224 222 217 214 216 217 227 224 225 231 237 243 247 252 256 258 247 241 242 240 250 250 262 255 241 237 236 242
106 105 137 195 219 218 218 216 216 216 219 230 233 238 241 243 247 251 247 251 252 248 239 234 246 250 243 242 245 229 223 212 224
95 91 83 81 96 162 187 202 210 213 221 227 236 237 244 248 250 255 257 255 255 247 238 243 238 249 246 246 241 222 219 218 220
96 88 84 86 95 110 124 146 176 195 209 221 237 243 243 245 248 250 256 254 252 249 245 240 245 248 246 243 242 230 225 228 223
101 96 94 95 101 105 111 120 135 159 182 206 225 229 241 241 249 245 243 250 244 245 243 243 246 247 246 247 243 239 229 240 217
114 106 107 106 104 101 105 109 118 138 154 182 208 229 227 232 233 242 243 238 243 236 241 242 246 248 247 246 245 242 237 233 226
125 119 115 110 104 102 104 109 117 139 172 221 243 207 224 225 231 237 242 241 240 238 237 240 242 247 252 251 249 247 237 236 231
149 136 115 106 103 102 106 115 125 152 233 273 232 242 242 247 241 241 245 243 243 247 242 246 246 244 248 249 246 240 235 229 235
160 137 118 104 97 94 89 83 87 91 69 257 256 266 262 255 266 262 257 255 254 251 259 255 251 250 249 246 244 244 242 234 232
140 129 120 111 97 85 77 72 80 68 37 1 346 335 326 332 306 278 268 267 265 266 267 263 255 252 249 247 244 242 239 256 244
129 123 115 103 96 86 75 71 57 45 38 29 25 350 313 308 309 307 300 295 288 282 270 266 266 264 261 262 262 265 265 264 264
124 118 111 98 90 84 71 57 35 29 29 22 19 356 343 335 329 321 301 292 300 296 289 274 265 264 264 264 266 265 264 266 265
124 117 108 101 90 80 73 70 57 26 4 353 343 335 330 325 320 315 312 302 295 285 276 275 273 263 267 271 267 255 261 276 251
132 119 109 105 99 95 88 76 53 32 354 332 326 322 317 314 310 305 300 294 294 293 286 278 275 272 275 277 262 261 273 284 282
135 126 116 114 111 101 80 10 10 359 326 322 318 315 311 308 306 304 296 292 289 283 281 284 284 282 280 274 272 265 271 273 272
143 138 130 129 118 88 48 333 327 326 320 322 322 320 316 315 314 314 310 302 295 292 290 287 276 272 272 273 274 273 275 275 276
148 143 140 136 135 32 350 338 332 329 324 329 333 325 324 323 326 319 323 311 303 292 286 282 279 281 278 276 273 272 277 277 277
150 144 135 132 117 346 339 329 331 329 328 330 329 322 318 318 317 323 326 322 313 305 295 282 275 271 270 271 271 268 267 264 275
156 153 150 150 4 348 339 337 344 338 335 333 334 329 327 318 319 321 323 325 323 317 315 313 293 275 270 268 265 267 267 262 267
166 154 159 188 335 351 358 350 348 334 332 338 347 347 338 326 329 324 321 319 325 324 326 333 330 324 307 279 274 274 274 270 267
Wind_Speed_850mb
20 25 30 36 43 52 55 56 59 64 62 67 65 65 62 58 57 55 50 51 52 39 35 31 29 29 29 25 29 25 28 32 26
25 17 11 11 22 35 46 53 56 57 68 70 67 67 67 66 65 63 55 53 46 42 43 36 39 34 31 27 32 33 33 33 35
27 22 20 19 16 14 21 33 43 48 49 56 55 55 54 52 54 58 56 55 57 49 42 44 42 39 34 31 26 34 38 40 44
24 25 24 24 24 24 24 22 23 28 33 37 46 55 56 53 48 45 48 47 47 46 48 49 47 45 40 37 34 33 40 42 52
22 23 26 28 31 33 29 24 20 19 19 20 24 32 42 48 45 44 41 45 41 42 45 50 51 49 46 44 41 36 38 35 53
20 21 23 29 31 32 27 23 19 16 16 8 10 19 25 28 31 33 39 39 40 41 46 49 51 52 52 51 48 46 43 40 42
19 18 20 25 29 28 23 19 15 12 8 7 7 12 17 25 30 32 32 35 39 41 47 51 53 54 56 58 59 59 54 52 51
22 20 18 18 22 19 16 11 8 4 3 7 6 9 12 16 22 22 26 32 36 39 40 46 52 55 58 59 58 55 55 57 64
27 21 20 19 20 19 14 10 10 7 2 6 8 9 9 13 17 20 26 29 31 34 37 39 42 45 47 49 53 47 58 59 54
25 24 24 22 21 20 19 16 12 9 6 4 4 2 6 7 8 13 20 26 29 34 39 35 41 45 50 50 51 54 54 50 55
30 27 22 21 22 21 18 16 12 13 13 11 6 5 8 13 17 18 20 22 22 23 28 35 39 42 48 54 59 65 69 61 53
28 26 22 20 19 16 14 12 12 12 12 11 9 8 12 15 18 20 24 26 24 26 27 29 34 38 43 48 54 54 54 57 60
25 21 17 15 15 14 15 15 13 13 15 18 21 25 25 25 26 27 25 25 25 25 29 34 33 32 38 40 42 36 27 30 40
22 19 16 15 14 14 15 13 10 11 14 24 31 35 38 39 38 36 35 36 34 31 33 36 39 37 39 42 40 38 36 24 29
23 18 15 13 13 12 5 6 9 10 20 30 34 37 39 42 43 41 37 41 40 40 40 36 36 35 38 36 42 55 59 53 54
20 15 13 9 7 7 6 13 24 25 30 34 37 36 34 34 36 35 34 34 36 36 35 37 36 37 40 38 33 36 46 57 59
19 15 12 8 5 2 7 18 25 29 33 34 28 22 22 21 23 33 28 28 26 28 31 35 38 39 41 41 41 40 39 34 38
18 15 10 7 3 3 10 21 25 25 28 29 25 24 23 23 24 27 28 27 29 31 30 32 37 36 38 39 39 38 39 40 32
17 14 9 5 2 8 15 21 20 23 22 23 24 23 22 26 28 28 28 29 29 30 39 43 39 46 52 53 53 56 54 51 54
22 16 10 4 4 10 13 16 19 22 22 20 24 29 25 24 27 25 27 31 34 39 37 33 38 39 36 44 52 54 56 55 50
Wind_Direction_850mb
175 199 214 222 226 224 222 217 214 216 217 227 224 225 231 237 243 247 252 256 258 247 241 242 240 250 250 262 255 241 237 236 242
106 105 137 195 219 218 218 216 216 216 219 230 233 238 241 243 247 251 247 251 252 248 239 234 246 250 243 242 245 229 223 212 224
95 91 83 81 96 162 187 202 210 213 221 227 236 237 244 248 250 255 257 255 255 247 238 243 238 249 246 246 241 222 219 218 220
96 88 84 86 95 110 124 146 176 195 209 221 237 243 243 245 248 250 256 254 252 249 245 240 245 248 246 243 242 230 225 228 223
101 96 94 95 101 105 111 120 135 159 182 206 225 229 241 241 249 245 243 250 244 245 243 243 246 247 246 247 243 239 229 240 217
114 106 107 106 104 101 105 109 118 138 154 182 208 229 227 232 233 242 243 238 243 236 241 242 246 248 247 246 245 242 237 233 226
125 119 115 110 104 102 104 109 117 139 172 221 243 207 224 225 231 237 242 241 240 238 237 240 242 247 252 251 249 247 237 236 231
149 136 115 106 103 102 106 115 125 152 233 273 232 242 242 247 241 241 245 243 243 247 242 246 246 244 248 249 246 240 235 229 235
160 137 118 104 97 94 89 83 87 91 69 257 256 266 262 255 266 262 257 255 254 251 259 255 251 250 249 246 244 244 242 234 232
140 129 120 111 97 85 77 72 80 68 37 1 346 335 326 332 306 278 268 267 265 266 267 263 255 252 249 247 244 242 239 256 244
129 123 115 103 96 86 75 71 57 45 38 29 25 350 313 308 309 307 300 295 288 282 270 266 266 264 261 262 262 265 265 264 264
124 118 111 98 90 84 71 57 35 29 29 22 19 356 343 335 329 321 301 292 300 296 289 274 265 264 264 264 266 265 264 266 265
124 117 108 101 90 80 73 70 57 26 4 353 343 335 330 325 320 315 312 302 295 285 276 275 273 263 267 271 267 255 261 276 251
132 119 109 105 99 95 88 76 53 32 354 332 326 322 317 314 310 305 300 294 294 293 286 278 275 272 275 277 262 261 273 284 282
135 126 116 114 111 101 80 10 10 359 326 322 318 315 311 308 306 304 296 292 289 283 281 284 284 282 280 274 272 265 271 273 272
143 138 130 129 118 88 48 333 327 326 320 322 322 320 316 315 314 314 310 302 295 292 290 287 276 272 272 273 274 273 275 275 276
148 143 140 136 135 32 350 338 332 329 324 329 333 325 324 323 326 319 323 311 303 292 286 282 279 281 278 276 273 272 277 277 277
150 144 135 132 117 346 339 329 331 329 328 330 329 322 318 318 317 323 326 322 313 305 295 282 275 271 270 271 271 268 267 264 275
156 153 150 150 4 348 339 337 344 338 335 333 334 329 327 318 319 321 323 325 323 317 315 313 293 275 270 268 265 267 267 262 267
166 154 159 188 335 351 358 350 348 334 332 338 347 347 338 326 329 324 321 319 325 324 326 333 330 324 307 279 274 274 274 270 267